N0JVW-13 Weather Reports


time (UTC)temp
C
wind
direction
speed
KPH
gust
KPH
rain 1hr
cm
rain 24hr
cm
rain mn
cm
humidity
%
barometer
mb
20260903233519 33 151 0.0 3.2 0.00 0.00 0.00 46 1008.5
20260903233107 33 156 0.0 3.2 0.00 0.00 0.00 46 1008.4
20260903232541 33 139 0.0 4.8 0.00 0.00 0.00 46 1008.4
20260903232021 34 130 1.6 4.8 0.00 0.00 0.00 45 1008.4
20260903231501 34 114 1.6 4.8 0.00 0.00 0.00 45 1008.4
20260903231045 34 122 1.6 4.8 0.00 0.00 0.00 45 1008.4
20260903230527 34 136 0.0 4.8 0.00 0.00 0.00 45 1008.4
20260903230005 34 160 1.6 4.8 0.00 0.00 0.00 45 1008.5
20260903225549 34 135 0.0 4.8 0.00 0.00 0.00 45 1008.5
20260903225028 34 149 0.0 6.4 0.00 0.00 0.00 46 1008.5
20260903224508 34 158 0.0 6.4 0.00 0.00 0.00 46 1008.6
20260903224051 34 105 0.0 4.8 0.00 0.00 0.00 46 1008.5
20260903223531 34 157 0.0 4.8 0.00 0.00 0.00 46 1008.6
20260903223012 34 174 0.0 4.8 0.00 0.00 0.00 45 1008.6
20260903222556 34 150 0.0 4.8 0.00 0.00 0.00 45 1008.7
20260903222035 34 143 1.6 4.8 0.00 0.00 0.00 45 1008.7
20260903221514 34 158 0.0 3.2 0.00 0.00 0.00 45 1008.6
20260903221058 34 138 0.0 4.8 0.00 0.00 0.00 45 1008.6
20260903220537 34 156 0.0 4.8 0.00 0.00 0.00 45 1008.6
20260903220021 34 156 0.0 3.2 0.00 0.00 0.00 45 1008.7
20260903215601 34 132 0.0 4.8 0.00 0.00 0.00 45 1008.7
20260903215041 34 117 0.0 6.4 0.00 0.00 0.00 45 1008.8
20260903214519 34 144 1.6 4.8 0.00 0.00 0.00 44 1008.7
20260903214104 34 159 0.0 6.4 0.00 0.00 0.00 44 1008.8
20260903213542 35 159 0.0 6.4 0.00 0.00 0.00 44 1008.8
20260903213021 34 128 0.0 1.6 0.00 0.00 0.00 46 1008.8
20260903212501 35 127 0.0 3.2 0.00 0.00 0.00 45 1008.8
20260903212045 35 149 0.0 6.4 0.00 0.00 0.00 44 1008.9
20260903211533 35 154 1.6 6.4 0.00 0.00 0.00 44 1008.9
20260903211002 35 155 1.6 4.8 0.00 0.00 0.00 45 1008.9
20260903210545 35 165 0.0 3.2 0.00 0.00 0.00 45 1008.9
20260903210025 34 108 0.0 3.2 0.00 0.00 0.00 45 1009.0
20260903205507 34 145 0.0 4.8 0.00 0.00 0.00 45 1009.0
20260903205048 34 179 0.0 8.0 0.00 0.00 0.00 45 1009.0
20260903204528 35 163 1.6 8.0 0.00 0.00 0.00 44 1009.0
20260903204006 35 134 1.6 6.4 0.00 0.00 0.00 46 1009.1
20260903203550 34 146 0.0 6.4 0.00 0.00 0.00 45 1009.1
20260903203038 34 156 0.0 6.4 0.00 0.00 0.00 46 1009.2
20260903202518 34 159 0.0 4.8 0.00 0.00 0.00 47 1009.2
20260903202101 34 131 0.0 4.8 0.00 0.00 0.00 46 1009.2
20260903201541 35 155 1.6 6.4 0.00 0.00 0.00 46 1009.3
20260903201019 35 169 1.6 8.0 0.00 0.00 0.00 46 1009.3
20260903200559 35 170 1.6 8.0 0.00 0.00 0.00 46 1009.3
20260903200040 34 143 0.0 9.7 0.00 0.00 0.00 46 1009.4
20260903195518 34 167 3.2 8.0 0.00 0.00 0.00 46 1009.5
20260903195101 35 163 1.6 6.4 0.00 0.00 0.00 46 1009.5
20260903194541 34 153 0.0 8.0 0.00 0.00 0.00 46 1009.5
20260903194021 34 117 0.0 8.0 0.00 0.00 0.00 47 1009.6
20260903193604 35 161 1.6 8.0 0.00 0.00 0.00 46 1009.7
20260903193044 34 176 0.0 6.4 0.00 0.00 0.00 48 1009.6
20260903192524 34 155 0.0 8.0 0.00 0.00 0.00 48 1009.7
20260903192001 34 134 1.6 6.4 0.00 0.00 0.00 47 1009.8
20260903191545 34 181 0.0 6.4 0.00 0.00 0.00 47 1009.8
20260903191025 34 165 1.6 6.4 0.00 0.00 0.00 47 1009.9
20260903190505 34 88 1.6 6.4 0.00 0.00 0.00 47 1010.0
20260903190045 34 167 1.6 9.7 0.00 0.00 0.00 49 1010.0
20260903185524 34 129 0.0 9.7 0.00 0.00 0.00 49 1010.0
20260903185004 33 135 0.0 9.7 0.00 0.00 0.00 50 1010.1
20260903184550 33 162 0.0 9.7 0.00 0.00 0.00 50 1010.2
20260903184029 33 205 3.2 6.4 0.00 0.00 0.00 48 1010.1
20260903183514 33 129 1.6 6.4 0.00 0.00 0.00 49 1010.2
20260903183055 33 125 1.6 6.4 0.00 0.00 0.00 50 1010.2
20260903182529 33 170 0.0 6.4 0.00 0.00 0.00 51 1010.3
20260903182009 33 160 1.6 4.8 0.00 0.00 0.00 50 1010.4
20260903181552 33 147 0.0 4.8 0.00 0.00 0.00 50 1010.4
20260903181031 33 134 0.0 4.8 0.00 0.00 0.00 52 1010.6
20260903180511 33 117 0.0 4.8 0.00 0.00 0.00 51 1010.7
20260903180054 33 117 0.0 6.4 0.00 0.00 0.00 52 1010.8
20260903175535 33 173 1.6 6.4 0.00 0.00 0.00 52 1010.8
20260903175012 33 187 0.0 6.4 0.00 0.00 0.00 51 1011.0
20260903174556 33 163 1.6 6.4 0.00 0.00 0.00 52 1011.0
20260903174036 33 154 1.6 6.4 0.00 0.00 0.00 52 1011.0
20260903173532 32 176 1.6 8.0 0.00 0.00 0.00 52 1011.0
20260903173059 32 169 1.6 8.0 0.00 0.00 0.00 52 1011.1
20260903172535 32 161 1.6 8.0 0.00 0.00 0.00 53 1011.2
20260903172014 32 156 1.6 6.4 0.00 0.00 0.00 54 1011.2
20260903171611 32 166 0.0 6.4 0.00 0.00 0.00 57 1011.2
20260903171037 32 174 1.6 6.4 0.00 0.00 0.00 55 1011.3
20260903170517 32 153 1.6 4.8 0.00 0.00 0.00 55 1011.3
20260903165541 32 149 0.0 6.4 0.00 0.00 0.00 56 1011.4
20260903165018 32 157 1.6 6.4 0.00 0.00 0.00 57 1011.4
20260903164602 31 120 0.0 4.8 0.00 0.00 0.00 58 1011.5
20260903164042 31 158 0.0 4.8 0.00 0.00 0.00 58 1011.5
20260903163522 31 196 0.0 4.8 0.00 0.00 0.00 58 1011.5
20260903163002 31 153 0.0 4.8 0.00 0.00 0.00 59 1011.7
20260903162544 31 139 0.0 4.8 0.00 0.00 0.00 59 1011.6
20260903162024 31 164 0.0 4.8 0.00 0.00 0.00 60 1011.6
20260903161502 31 179 0.0 4.8 0.00 0.00 0.00 62 1011.7
20260903161045 31 156 1.6 4.8 0.00 0.00 0.00 62 1011.7
20260903160525 30 170 0.0 4.8 0.00 0.00 0.00 62 1011.7
20260903160005 30 180 0.0 6.4 0.00 0.00 0.00 61 1011.8
20260903155548 30 136 0.0 6.4 0.00 0.00 0.00 62 1011.8
20260903155035 30 137 0.0 6.4 0.00 0.00 0.00 63 1011.7
20260903154508 30 134 0.0 6.4 0.00 0.00 0.00 64 1011.7
20260903154052 30 135 0.0 1.6 0.00 0.00 0.00 66 1011.7
20260903153530 30 136 0.0 3.2 0.00 0.00 0.00 65 1011.7
20260903153009 30 157 0.0 3.2 0.00 0.00 0.00 65 1011.7
20260903152553 29 162 0.0 4.8 0.00 0.00 0.00 66 1011.7
20260903152032 29 166 1.6 4.8 0.00 0.00 0.00 67 1011.8
20260903151512 28 121 0.0 1.6 0.00 0.00 0.00 68 1011.8
20260903151055 28 113 0.0 1.6 0.00 0.00 0.00 68 1011.8
20260903150535 28 165 0.0 1.6 0.00 0.00 0.00 69 1011.8
20260903150020 28 133 0.0 3.2 0.00 0.00 0.00 69 1011.8
20260903145601 28 162 0.0 4.8 0.00 0.00 0.00 69 1011.9
20260903145038 28 160 0.0 6.4 0.00 0.00 0.00 69 1011.9
20260903144518 28 196 1.6 6.4 0.00 0.00 0.00 70 1011.8
20260903144106 27 153 1.6 6.4 0.00 0.00 0.00 70 1011.9
20260903143541 27 159 1.6 6.4 0.00 0.00 0.00 70 1011.9
20260903143032 27 159 0.0 3.2 0.00 0.00 0.00 71 1012.0
20260903142605 27 155 0.0 6.4 0.00 0.00 0.00 71 1012.0
20260903142043 27 157 0.0 6.4 0.00 0.00 0.00 71 1012.0
20260903141523 27 146 0.0 6.4 0.00 0.00 0.00 70 1012.1
20260903141005 26 127 1.6 6.4 0.00 0.00 0.00 71 1012.1
20260903140546 26 171 0.0 6.4 0.00 0.00 0.00 70 1012.1
20260903140025 26 164 0.0 6.4 0.00 0.00 0.00 70 1012.2
20260903135509 26 154 1.6 6.4 0.00 0.00 0.00 69 1012.2
20260903135049 26 124 0.0 0.0 0.00 0.00 0.00 68 1012.2
20260903134527 25 162 0.0 0.0 0.00 0.00 0.00 68 1012.1
20260903134006 25 137 0.0 0.0 0.00 0.00 0.00 68 1012.1
20260903133550 25 162 0.0 0.0 0.00 0.00 0.00 68 1012.1
20260903133030 25 153 0.0 0.0 0.00 0.00 0.00 66 1012.1
20260903132509 25 162 0.0 1.6 0.00 0.00 0.00 66 1012.1
20260903132052 25 162 0.0 1.6 0.00 0.00 0.00 65 1012.1
20260903131528 24 131 0.0 1.6 0.00 0.00 0.00 63 1012.1
20260903131008 24 119 0.0 1.6 0.00 0.00 0.00 62 1012.0
20260903130551 24 119 0.0 1.6 0.00 0.00 0.00 62 1012.0
20260903130030 24 146 0.0 0.0 0.00 0.00 0.00 61 1011.9
20260903125510 23 146 0.0 0.0 0.00 0.00 0.00 61 1011.9
20260903125053 23 146 0.0 0.0 0.00 0.00 0.00 61 1011.9
20260903124532 23 146 0.0 0.0 0.00 0.00 0.00 60 1011.8
20260903124014 23 148 0.0 1.6 0.00 0.00 0.00 60 1011.8
20260903123601 23 148 0.0 1.6 0.00 0.00 0.00 60 1011.8
20260903123036 23 150 0.0 1.6 0.00 0.00 0.00 62 1011.8
20260903122515 23 146 0.0 0.0 0.00 0.00 0.00 62 1011.8
20260903122056 23 156 0.0 0.0 0.00 0.00 0.00 61 1011.7
20260903121535 23 156 0.0 0.0 0.00 0.00 0.00 63 1011.7
20260903121015 23 156 0.0 1.6 0.00 0.00 0.00 63 1011.6
20260903120601 23 122 0.0 1.6 0.00 0.00 0.00 63 1011.5
20260903120046 23 157 0.0 0.0 0.00 0.00 0.00 63 1011.5
20260903115520 23 156 0.0 0.0 0.00 0.00 0.00 63 1011.5
20260903115101 23 156 0.0 1.6 0.00 0.00 0.00 63 1011.4
20260903114540 23 156 0.0 1.6 0.00 0.00 0.00 63 1011.4
20260903114019 23 144 0.0 0.0 0.00 0.00 0.00 65 1011.2
20260903113605 23 152 0.0 0.0 0.00 0.00 0.00 67 1011.2
20260903113147 23 151 0.0 0.0 0.00 0.00 0.00 68 1011.2
20260903112530 23 151 0.0 0.0 0.00 0.00 0.00 68 1011.2
20260903112008 23 151 0.0 0.0 0.00 0.00 0.00 69 1011.2
20260903111552 23 152 0.0 0.0 0.00 0.00 0.00 69 1011.1
20260903111034 24 152 0.0 0.0 0.00 0.00 0.00 69 1011.1
20260903110508 24 152 0.0 0.0 0.00 0.00 0.00 69 1011.1
20260903110051 24 152 0.0 0.0 0.00 0.00 0.00 69 1011.1
20260903105530 24 151 0.0 0.0 0.00 0.00 0.00 70 1011.1
20260903105010 24 152 0.0 0.0 0.00 0.00 0.00 70 1011.1
20260903104554 24 136 0.0 0.0 0.00 0.00 0.00 70 1011.0
20260903104035 24 136 0.0 0.0 0.00 0.00 0.00 71 1011.0
20260903103513 24 136 0.0 0.0 0.00 0.00 0.00 71 1010.8
20260903103057 24 136 0.0 0.0 0.00 0.00 0.00 71 1010.8
20260903102537 24 136 0.0 0.0 0.00 0.00 0.00 71 1010.8
20260903102020 24 123 0.0 0.0 0.00 0.00 0.00 71 1010.7
20260903101602 25 123 0.0 0.0 0.00 0.00 0.00 71 1010.7
20260903101037 25 141 0.0 0.0 0.00 0.00 0.00 71 1010.7
20260903100518 25 136 0.0 0.0 0.00 0.00 0.00 71 1010.7
20260903095539 25 155 0.0 0.0 0.00 0.00 0.00 72 1010.7
20260903095019 25 147 0.0 0.0 0.00 0.00 0.00 72 1010.7
20260903094652 25 143 0.0 0.0 0.00 0.00 0.00 72 1010.7
20260903094042 25 135 0.0 0.0 0.00 0.00 0.00 72 1010.8
20260903093522 25 134 0.0 0.0 0.00 0.00 0.00 72 1010.8
20260903093001 25 134 0.0 0.0 0.00 0.00 0.00 72 1010.7
20260903092547 25 134 0.0 0.0 0.00 0.00 0.00 72 1010.7
20260903092025 25 131 0.0 0.0 0.00 0.00 0.00 72 1010.7
20260903091505 25 134 0.0 0.0 0.00 0.00 0.00 72 1010.7
20260903091047 25 134 0.0 0.0 0.00 0.00 0.00 72 1010.7
20260903090531 25 134 0.0 0.0 0.00 0.00 0.00 72 1010.7
20260903090007 25 134 0.0 0.0 0.00 0.00 0.00 72 1010.8
20260903085549 25 134 0.0 0.0 0.00 0.00 0.00 72 1010.7
20260903085029 25 134 0.0 0.0 0.00 0.00 0.00 72 1010.7
20260903084523 25 134 0.0 0.0 0.00 0.00 0.00 71 1010.6
20260903084052 25 134 0.0 0.0 0.00 0.00 0.00 71 1010.6
20260903083532 25 134 0.0 0.0 0.00 0.00 0.00 71 1010.7
20260903083019 25 134 0.0 0.0 0.00 0.00 0.00 71 1010.7
20260903082554 25 134 0.0 0.0 0.00 0.00 0.00 71 1010.6
20260903082034 25 134 0.0 0.0 0.00 0.00 0.00 71 1010.6
20260903081514 25 134 0.0 0.0 0.00 0.00 0.00 71 1010.6
20260903081057 25 134 0.0 0.0 0.00 0.00 0.00 71 1010.5
20260903080537 25 134 0.0 0.0 0.00 0.00 0.00 70 1010.6
20260903080035 26 148 0.0 0.0 0.00 0.00 0.00 70 1010.6
20260903075602 26 148 0.0 0.0 0.00 0.00 0.00 70 1010.5
20260903075039 26 148 0.0 0.0 0.00 0.00 0.00 69 1010.5
20260903074519 26 148 0.0 0.0 0.00 0.00 0.00 69 1010.5
20260903074106 26 148 0.0 0.0 0.00 0.00 0.00 68 1010.5
20260903073545 26 148 0.0 0.0 0.00 0.00 0.00 68 1010.5
20260903073024 26 153 0.0 0.0 0.00 0.00 0.00 68 1010.5
20260903072501 26 153 0.0 0.0 0.00 0.00 0.00 67 1010.5
20260903072046 26 153 0.0 0.0 0.00 0.00 0.00 67 1010.5
20260903071525 26 153 0.0 0.0 0.00 0.00 0.00 67 1010.5
20260903071007 26 153 0.0 0.0 0.00 0.00 0.00 67 1010.6
20260903070550 26 153 0.0 0.0 0.00 0.00 0.00 66 1010.5
20260903070026 27 153 0.0 0.0 0.00 0.00 0.00 66 1010.6
20260903065506 27 153 0.0 0.0 0.00 0.00 0.00 65 1010.7
20260903065049 27 153 0.0 0.0 0.00 0.00 0.00 65 1010.6
20260903064529 27 153 0.0 0.0 0.00 0.00 0.00 65 1010.6
20260903064008 27 153 0.0 0.0 0.00 0.00 0.00 65 1010.5
20260903063551 27 153 0.0 0.0 0.00 0.00 0.00 65 1010.5
20260903063031 27 153 0.0 0.0 0.00 0.00 0.00 64 1010.5
20260903062511 27 153 0.0 0.0 0.00 0.00 0.00 64 1010.6
20260903062055 27 153 0.0 0.0 0.00 0.00 0.00 64 1010.5
20260903061533 27 153 0.0 0.0 0.00 0.00 0.00 64 1010.5
20260903061016 27 153 0.0 0.0 0.00 0.00 0.00 64 1010.5
20260903060556 27 153 0.0 0.0 0.00 0.00 0.00 64 1010.5
20260903060037 27 153 0.0 0.0 0.00 0.00 0.00 64 1010.5
20260903055517 27 153 0.0 0.0 0.00 0.00 0.00 64 1010.5
20260903055056 27 153 0.0 0.0 0.00 0.00 0.00 64 1010.5
20260903054536 27 153 0.0 0.0 0.00 0.00 0.00 64 1010.5
20260903054015 27 153 0.0 0.0 0.00 0.00 0.00 64 1010.5
20260903053602 27 153 0.0 0.0 0.00 0.00 0.00 64 1010.5
20260903053040 27 153 0.0 0.0 0.00 0.00 0.00 63 1010.5
20260903052518 27 153 0.0 0.0 0.00 0.00 0.00 63 1010.5
20260903052101 27 153 0.0 0.0 0.00 0.00 0.00 63 1010.5
20260903051546 27 153 0.0 0.0 0.00 0.00 0.00 63 1010.5
20260903051020 27 153 0.0 0.0 0.00 0.00 0.00 63 1010.5
20260903050603 27 153 0.0 0.0 0.00 0.00 0.00 63 1010.5
20260903050043 27 153 0.0 0.0 0.00 0.00 0.00 63 1010.5
20260903045524 28 153 0.0 0.0 0.00 0.00 0.00 63 1010.5
20260903045003 28 153 0.0 0.0 0.00 0.00 0.00 62 1010.5
20260903044547 28 153 0.0 0.0 0.00 0.00 0.00 62 1010.4
20260903044026 28 153 0.0 0.0 0.00 0.00 0.00 62 1010.5
20260903043506 28 153 0.0 0.0 0.00 0.00 0.00 62 1010.5
20260903043048 28 153 0.0 0.0 0.00 0.00 0.00 62 1010.5
20260903042533 28 153 0.0 0.0 0.00 0.00 0.00 62 1010.5
20260903042009 28 153 0.0 0.0 0.00 0.00 0.00 62 1010.4
20260903041607 28 153 0.0 0.0 0.00 0.00 0.00 61 1010.5
20260903041033 28 153 0.0 0.0 0.00 0.00 0.00 61 1010.5
20260903040510 28 153 0.0 0.0 0.00 0.00 0.00 61 1010.6
20260903040108 28 153 0.0 0.0 0.00 0.00 0.00 61 1010.7
20260903035537 28 153 0.0 0.0 0.00 0.00 0.00 61 1010.6
20260903035012 28 153 0.0 0.0 0.00 0.00 0.00 60 1010.6
20260903034559 28 153 0.0 0.0 0.00 0.00 0.00 60 1010.6
20260903034036 28 153 0.0 0.0 0.00 0.00 0.00 60 1010.6
20260903033514 28 153 0.0 0.0 0.00 0.00 0.00 60 1010.6
20260903033058 28 153 0.0 0.0 0.00 0.00 0.00 60 1010.6
20260903032537 28 153 0.0 0.0 0.00 0.00 0.00 59 1010.6
20260903032017 29 153 0.0 0.0 0.00 0.00 0.00 59 1010.6
20260903031602 29 153 0.0 0.0 0.00 0.00 0.00 59 1010.5
20260903031043 29 153 0.0 0.0 0.00 0.00 0.00 59 1010.5
20260903030520 29 153 0.0 0.0 0.00 0.00 0.00 59 1010.6
20260903030106 29 153 0.0 0.0 0.00 0.00 0.00 59 1010.6
20260903025543 29 153 0.0 0.0 0.00 0.00 0.00 59 1010.6
20260903025021 29 153 0.0 0.0 0.00 0.00 0.00 58 1010.5
20260903024502 29 153 0.0 0.0 0.00 0.00 0.00 58 1010.6
20260903024044 29 153 0.0 0.0 0.00 0.00 0.00 58 1010.5
20260903023524 29 153 0.0 0.0 0.00 0.00 0.00 57 1010.4
20260903023006 29 153 0.0 0.0 0.00 0.00 0.00 57 1010.5
20260903022550 30 153 0.0 0.0 0.00 0.00 0.00 58 1010.5
20260903022026 30 153 0.0 0.0 0.00 0.00 0.00 57 1010.4
20260903021507 30 153 0.0 0.0 0.00 0.00 0.00 57 1010.3
20260903021051 30 153 0.0 0.0 0.00 0.00 0.00 57 1010.3
20260903020530 30 153 0.0 0.0 0.00 0.00 0.00 56 1010.3
20260903020010 30 153 0.0 0.0 0.00 0.00 0.00 56 1010.2
20260903015555 30 153 0.0 0.0 0.00 0.00 0.00 56 1010.1
20260903015034 30 153 0.0 0.0 0.00 0.00 0.00 56 1010.0
20260903014512 30 153 0.0 0.0 0.00 0.00 0.00 56 1009.9
20260903014056 30 153 0.0 0.0 0.00 0.00 0.00 56 1009.8
20260903013536 30 153 0.0 0.0 0.00 0.00 0.00 57 1009.8
20260903013015 30 153 0.0 0.0 0.00 0.00 0.00 56 1009.8
20260903012559 30 153 0.0 0.0 0.00 0.00 0.00 56 1009.7
20260903012038 31 153 0.0 0.0 0.00 0.00 0.00 56 1009.7
20260903011518 31 153 0.0 0.0 0.00 0.00 0.00 55 1009.6
20260903011103 31 153 0.0 0.0 0.00 0.00 0.00 55 1009.6
20260903010540 31 153 0.0 0.0 0.00 0.00 0.00 54 1009.6
20260903010019 31 153 0.0 0.0 0.00 0.00 0.00 53 1009.6
20260903005605 32 153 0.0 0.0 0.00 0.00 0.00 53 1009.6
20260903005045 32 153 0.0 0.0 0.00 0.00 0.00 53 1009.5
20260903004521 32 153 0.0 0.0 0.00 0.00 0.00 52 1009.6
20260903004005 32 153 0.0 0.0 0.00 0.00 0.00 52 1009.5
20260903003544 32 153 0.0 0.0 0.00 0.00 0.00 52 1009.5
20260903003026 32 153 0.0 0.0 0.00 0.00 0.00 51 1009.5
20260903002502 32 153 0.0 0.0 0.00 0.00 0.00 51 1009.6
20260903002045 32 153 0.0 0.0 0.00 0.00 0.00 50 1009.6
20260903001540 33 153 0.0 0.0 0.00 0.00 0.00 50 1009.6
20260903001004 33 153 0.0 0.0 0.00 0.00 0.00 50 1009.7
20260903000547 33 153 0.0 0.0 0.00 0.00 0.00 49 1009.6
20260903000027 33 153 0.0 0.0 0.00 0.00 0.00 49 1009.6
20260902235507 33 153 0.0 1.6 0.00 0.00 0.00 49 1009.6
20260902235049 33 156 0.0 1.6 0.00 0.00 0.00 49 1009.7
20260902234532 33 120 0.0 1.6 0.00 0.00 0.00 48 1009.6
20260902234009 33 154 0.0 1.6 0.00 0.00 0.00 48 1009.7